Location: Ariel
(45.9570°N, 122.5700°W)
Time: 08:22:11
(UTC-07:00)

Courier 1B Rocket - All Passes

Search period start: 20 August 2019 00:00
Search period end: 30 August 2019 00:00
Orbit: 920 x 1202 km, 28.3° (Epoch: 19 August)

Date Brightness Start Highest point End Pass type
(mag) Time Alt. Az. Time Alt. Az. Time Alt. Az.
20 Aug - 04:34:00 10° S 04:36:54 12° SSE 04:39:52 10° SE visible
20 Aug - 06:24:02 10° SW 06:29:16 20° S 06:34:32 10° SE daylight
20 Aug - 08:16:45 10° SW 08:21:46 19° S 08:26:45 10° SSE daylight
21 Aug - 05:23:37 10° SSW 05:28:25 18° S 05:33:18 10° SE visible
21 Aug - 07:15:37 10° SW 07:20:54 20° S 07:26:12 10° SE daylight
21 Aug - 09:09:54 10° SW 09:13:18 13° SSW 09:16:41 10° S daylight
22 Aug - 04:23:35 10° SSW 04:27:37 15° SSE 04:31:44 10° SE visible
22 Aug - 06:14:44 10° SW 06:20:02 20° S 06:25:23 10° SE daylight
22 Aug - 08:08:03 10° SW 08:12:30 16° SSW 08:16:57 10° SSE daylight
23 Aug - 03:24:18 10° S 03:26:52 12° SSE 03:29:29 10° SE visible
23 Aug - 05:14:07 10° SW 05:19:10 19° S 05:24:20 10° SE visible
23 Aug - 07:06:42 10° SW 07:11:39 18° S 07:16:39 10° SSE daylight
23 Aug - 09:03:52 10° SSW 09:03:58 10° SSW 09:04:04 10° SSW daylight
24 Aug - 04:13:48 10° SSW 04:18:21 17° SSE 04:23:01 10° SE visible
24 Aug - 06:05:41 10° SW 06:10:47 20° S 06:16:01 10° SE daylight
24 Aug - 07:59:52 10° SW 08:03:12 13° SSW 08:06:33 10° S daylight
25 Aug - 03:13:54 10° SSW 03:17:35 15° SSE 03:21:22 10° SE visible
25 Aug - 05:04:54 10° SW 05:09:57 20° S 05:15:07 10° SE visible
25 Aug - 06:58:07 10° SW 07:02:23 16° SSW 07:06:44 10° SSE daylight
26 Aug - 02:14:54 10° S 02:16:53 11° SSE 02:18:54 10° SE visible
26 Aug - 04:04:23 10° SW 04:09:07 19° S 04:14:01 10° SE visible
26 Aug - 05:56:52 10° SW 06:01:33 18° S 06:06:22 10° SSE daylight
27 Aug - 03:04:10 10° SSW 03:08:21 17° SSE 03:12:40 10° SE visible
27 Aug - 04:55:56 10° SW 05:00:44 19° S 05:05:41 10° SE visible
27 Aug - 06:50:06 10° SW 06:53:07 13° SSW 06:56:10 10° S daylight
28 Aug - 02:04:24 10° SSW 02:07:39 14° SSE 02:10:58 10° SE visible
28 Aug - 03:55:15 10° SW 03:59:56 19° S 04:04:47 10° SE visible
28 Aug - 05:48:24 10° SW 05:52:20 15° SSW 05:56:21 10° SSE visible
29 Aug - 01:05:54 10° SSE 01:07:00 10° SSE 01:08:07 10° SSE night (unlit)
29 Aug - 02:54:49 10° SSW 02:59:09 18° S 03:03:40 10° SE visible
29 Aug - 04:47:13 10° SW 04:51:32 17° S 04:55:59 10° SSE visible
